Date String (YYYY-MM-DD hh:mm:ss) UTC,Instrument flags,Ambient pressure (hPa),Sample flow (lpm),Bypass flow (lpm),Sample temperature (°C),Ambient temperature (°C),ASC tube jacket temperature (°C),LED temperature (°C),Box temperature (°C),Sample RH (%),Span deviation,Mass concentration (μg/m³),Mass concentration (μg/m³),Mass concentration (μg/m³)
DateTimeUTC,F1_M11,P_M11,Q1_M11,Q2_M11,T1_M11,T2_M11,T3_M11,T4_M11,T5_M11,U1_M11,ZSPAN_M11,X0_M11,X2_M11,X1_M11
2022-04-13 05:00:00,,0817.0,4.99,0.00,22.1,22.2,00.0,31.1,23.9,06.9,0000.0,0005.49,0001.46,0000.50
2022-04-13 05:01:00,,0817.3,5.00,0.00,22.1,21.9,00.0,31.1,23.8,07.1,0000.0,0004.46,0001.42,0000.49
2022-04-13 05:02:00,,0817.1,5.00,0.00,22.1,21.7,00.0,31.1,23.7,07.1,0000.0,0004.53,0001.43,0000.49
2022-04-13 05:03:00,,0817.1,5.00,0.00,22.0,21.5,00.0,31.1,23.7,07.2,0000.0,0004.75,0001.55,0000.49
2022-04-13 05:04:00,,0817.3,5.00,0.00,22.0,21.3,00.0,31.0,23.7,07.2,0000.0,0004.36,0001.54,0000.49
2022-04-13 05:05:00,,0817.1,5.00,0.00,22.0,21.3,00.0,31.0,23.6,07.2,0000.0,0003.91,0001.49,0000.49
2022-04-13 05:06:00,,0817.4,5.01,0.00,22.0,21.2,00.0,31.0,23.5,07.2,0000.0,0003.53,0001.46,0000.49
2022-04-13 05:07:00,,0817.1,5.02,0.00,21.9,21.1,00.0,31.0,23.5,07.2,0000.0,0002.98,0001.35,0000.49
2022-04-13 05:08:00,,0817.2,5.00,0.00,21.9,21.0,00.0,31.0,23.5,07.2,0000.0,0002.92,0001.36,0000.48
2022-04-13 05:09:00,,0817.3,4.99,0.00,21.9,21.0,00.0,31.0,23.5,07.2,0000.0,0002.85,0001.32,0000.48
2022-04-13 05:10:00,,0817.1,5.00,0.00,21.8,20.9,00.0,31.0,23.5,07.2,0000.0,0002.80,0001.29,0000.48
2022-04-13 05:11:00,,0817.2,5.01,0.00,21.8,20.9,00.0,30.9,23.5,07.2,0000.0,0003.06,0001.35,0000.49
2022-04-13 05:12:00,,0817.4,5.00,0.00,21.8,21.0,00.0,30.9,23.5,07.2,0000.0,0003.19,0001.37,0000.49
2022-04-13 05:13:00,,0817.1,5.00,0.00,21.9,21.7,00.0,31.0,23.7,07.2,0000.0,0003.25,0001.36,0000.49
2022-04-13 05:14:00,,0817.3,5.00,0.00,22.0,22.7,00.0,31.0,24.0,07.0,0000.0,0003.16,0001.29,0000.51
2022-04-13 05:15:00,,0817.4,5.01,0.00,22.2,23.2,00.0,31.0,24.2,06.7,0000.0,0003.27,0001.31,0000.51
2022-04-13 05:16:00,,0817.2,5.00,0.00,22.2,22.9,00.0,31.1,24.2,06.7,0000.0,0003.18,0001.31,0000.52
2022-04-13 05:17:00,,0817.2,4.99,0.00,22.2,22.6,00.0,31.1,24.1,06.8,0000.0,0003.52,0001.25,0000.52
2022-04-13 05:18:00,,0817.2,5.00,0.00,22.2,22.3,00.0,31.1,24.0,06.9,0000.0,0005.38,0001.32,0000.52
2022-04-13 05:19:00,,0817.2,5.00,0.00,22.2,22.0,00.0,31.1,24.0,06.9,0000.0,0005.52,0001.37,0000.51
2022-04-13 05:20:00,,0817.3,5.00,0.00,22.2,21.8,00.0,31.1,23.9,06.9,0000.0,0005.53,0001.36,0000.51
2022-04-13 05:21:00,,0817.1,4.99,0.00,22.1,21.6,00.0,31.1,23.8,06.9,0000.0,0005.63,0001.40,0000.51
2022-04-13 05:22:00,,0817.3,4.99,0.00,22.1,21.5,00.0,31.1,23.8,06.9,0000.0,0005.49,0001.39,0000.52
2022-04-13 05:23:00,,0817.1,5.00,0.00,22.1,21.4,00.0,31.1,23.8,06.9,0000.0,0005.66,0001.36,0000.53
2022-04-13 05:24:00,,0817.0,4.99,0.00,22.1,21.3,00.0,31.1,23.7,06.9,0000.0,0005.60,0001.36,0000.53
2022-04-13 05:25:00,,0816.8,5.00,0.00,22.0,21.2,00.0,31.1,23.7,06.9,0000.0,0006.36,0001.34,0000.52
2022-04-13 05:26:00,,0816.8,5.01,0.00,22.0,21.2,00.0,31.1,23.7,06.9,0000.0,0006.24,0001.31,0000.52
2022-04-13 05:27:00,,0816.8,5.00,0.00,22.0,21.1,00.0,31.0,23.7,07.0,0000.0,0006.35,0001.36,0000.52
2022-04-13 05:28:00,,0816.8,5.00,0.00,22.0,21.1,00.0,31.0,23.6,07.0,0000.0,0006.05,0001.43,0000.53
2022-04-13 05:29:00,,0816.8,5.01,0.00,21.9,21.0,00.0,31.0,23.6,07.0,0000.0,0004.47,0001.40,0000.53
2022-04-13 05:30:00,,0816.7,4.99,0.00,21.9,21.0,00.0,31.0,23.6,07.0,0000.0,0004.32,0001.34,0000.54
2022-04-13 05:31:00,,0816.8,4.99,0.00,21.9,21.0,00.0,31.0,23.6,07.1,0000.0,0004.18,0001.33,0000.54
2022-04-13 05:32:00,,0816.8,5.03,0.00,22.0,21.6,00.0,31.0,23.7,07.1,0000.0,0004.18,0001.34,0000.54
2022-04-13 05:33:00,,0816.8,5.00,0.00,22.1,22.5,00.0,31.1,24.0,07.0,0000.0,0004.46,0001.34,0000.55
2022-04-13 05:34:00,,0816.8,5.01,0.00,22.2,23.1,00.0,31.1,24.2,07.0,0000.0,0004.98,0001.37,0000.54
2022-04-13 05:35:00,,0816.8,5.00,0.00,22.3,22.9,00.0,31.1,24.2,07.0,0000.0,0005.35,0001.36,0000.54
2022-04-13 05:36:00,,0816.8,4.98,0.00,22.3,22.6,00.0,31.1,24.2,07.0,0000.0,0004.64,0001.33,0000.55
2022-04-13 05:37:00,,0816.7,5.01,0.00,22.3,22.3,00.0,31.1,24.1,07.0,0000.0,0004.33,0001.31,0000.55
2022-04-13 05:38:00,,0816.8,5.00,0.00,22.3,22.1,00.0,31.2,24.1,06.9,0000.0,0004.32,0001.30,0000.54
2022-04-13 05:39:00,,0816.8,4.98,0.00,22.2,21.9,00.0,31.2,24.0,07.0,0000.0,0004.26,0001.28,0000.53
2022-04-13 05:40:00,,0816.8,5.01,0.00,22.2,21.7,00.0,31.2,23.9,07.0,0000.0,0004.13,0001.26,0000.53
2022-04-13 05:41:00,,0816.8,5.00,0.00,22.2,21.6,00.0,31.2,23.9,07.0,0000.0,0004.37,0001.30,0000.53
2022-04-13 05:42:00,,0816.8,5.00,0.00,22.2,21.5,00.0,31.1,23.8,07.0,0000.0,0004.66,0001.34,0000.54
2022-04-13 05:43:00,,0816.8,5.00,0.00,22.1,21.4,00.0,31.1,23.8,07.0,0000.0,0004.84,0001.35,0000.55
2022-04-13 05:44:00,,0816.8,5.00,0.00,22.1,21.3,00.0,31.1,23.7,07.1,0000.0,0004.69,0001.31,0000.55
2022-04-13 05:45:00,,0816.8,5.00,0.00,22.1,21.2,00.0,31.1,23.7,07.1,0000.0,0004.76,0001.34,0000.55
2022-04-13 05:46:00,,0816.7,5.00,0.00,22.0,21.1,00.0,31.1,23.7,07.1,0000.0,0004.77,0001.36,0000.55
2022-04-13 05:47:00,,0816.7,5.01,0.00,22.0,21.0,00.0,31.1,23.6,07.1,0000.0,0005.03,0001.42,0000.55
2022-04-13 05:48:00,,0816.7,5.00,0.00,21.9,20.9,00.0,31.1,23.5,06.9,0000.0,0005.23,0001.47,0000.55
2022-04-13 05:49:00,,0816.8,5.00,0.00,21.9,20.8,00.0,31.1,23.4,07.1,0000.0,0005.56,0001.55,0000.56
2022-04-13 05:50:00,,0816.8,5.00,0.00,21.9,21.3,00.0,31.1,23.6,07.1,0000.0,0005.67,0001.59,0000.57
2022-04-13 05:51:00,,0816.8,5.00,0.00,22.0,22.3,00.0,31.1,23.9,07.0,0000.0,0005.74,0001.63,0000.57
2022-04-13 05:52:00,,0817.0,5.00,0.00,22.2,23.0,00.0,31.1,24.1,07.0,0000.0,0005.71,0001.59,0000.57
2022-04-13 05:53:00,,0816.9,5.00,0.00,22.2,22.9,00.0,31.1,24.1,06.8,0000.0,0005.70,0001.60,0000.56
2022-04-13 05:54:00,,0816.8,4.99,0.00,22.2,22.5,00.0,31.1,24.0,06.6,0000.0,0005.59,0001.60,0000.56
2022-04-13 05:55:00,,0817.1,5.01,0.00,22.2,22.2,00.0,31.1,23.9,06.7,0000.0,0005.62,0001.58,0000.56
2022-04-13 05:56:00,,0817.4,5.00,0.00,22.1,21.9,00.0,31.1,23.9,06.9,0000.0,0005.47,0001.55,0000.56
2022-04-13 05:57:00,,0817.3,4.98,0.00,22.1,21.7,00.0,31.1,23.8,07.0,0000.0,0004.75,0001.53,0000.58
2022-04-13 05:58:00,,0817.1,5.01,0.00,22.0,21.4,00.0,31.1,23.6,07.1,0000.0,0004.48,0001.50,0000.59
2022-04-13 05:59:00,,0817.3,4.99,0.00,21.9,21.2,00.0,31.1,23.5,07.2,0000.0,0004.32,0001.47,0000.58
